Salmon, ID

5:15 PM MDT on May 28, 2017 (GMT -0600)
Lemhi County

Weather History for KSMN - January, 2014

Change the Weather History Date:

Friday, January 10, 2014

  Actual Average Record
Temperature  
Mean Temperature 30 °F -  
Max Temperature 35 °F 25 °F 53 °F (1990)
Min Temperature 26 °F 12 °F -18 °F (1977)
Degree Days  
Heating Degree Days 34    
Moisture  
Dew Point 24 °F    
Average Humidity 76    
Maximum Humidity 100    
Minimum Humidity 48    
Precipitation  
Precipitation 0.00 in - - ()
Sea Level Pressure  
Sea Level Pressure 29.87 in    
Wind  
Wind Speed 7 mph (SSW)    
Max Wind Speed 18 mph    
Max Gust Speed 25 mph    
Visibility 10 miles    
Events      
Averages and records for this station are not official NWS values.
T = Trace of Precipitation, MM = Missing Value Source: NWS Daily Summary

Daily Weather History Graph

Daily Weather History Graph

Search for Another Location

Airport or City:

Trip Planner

Search our weather history database for the weather conditions in past years. The results will help you decide how hot, cold, wet, or windy it might be!

Date:

Astronomy

Jan. 10, 2014 Rise Set
Actual Time 8:12 AM MST 5:13 PM MST
Civil Twilight 7:39 AM MST 5:47 PM MST
Nautical Twilight 7:02 AM MST 6:23 PM MST
Astronomical Twilight 6:27 AM MST 6:59 PM MST
Moon 1:23 PM MST (1/10) 3:19 AM MST (1/10)
Length of Visible Light 10h 07m
Length of Day
9h 01m
Waxing Gibbous, 75% of the Moon is Illuminated
Jan 10
Waxing Gibbous
Jan 15
Full
Jan 23
Last Quarter
Jan 30
New
Feb 6
First Quarter

Hourly Weather History & Observations

Time (MST) Temp. Windchill Dew Point Humidity Pressure Visibility Wind Dir Wind Speed Gust Speed Precip Events Conditions
12:15 AM 33.8 °F 23.5 °F 15.8 °F 48% 29.80 in 10.0 mi South 16.1 mph 20.7 mph N/A   Overcast
12:35 AM 32.0 °F 22.1 °F 15.8 °F 51% 29.79 in 10.0 mi South 13.8 mph - N/A   Overcast
12:55 AM 32.0 °F 21.2 °F 15.8 °F 51% 29.78 in 10.0 mi South 16.1 mph 24.2 mph N/A   Overcast
1:15 AM 33.8 °F 23.5 °F 15.8 °F 48% 29.77 in 10.0 mi South 16.1 mph 20.7 mph N/A   Overcast
1:35 AM 33.8 °F 24.3 °F 15.8 °F 48% 29.77 in 10.0 mi South 13.8 mph 20.7 mph N/A   Overcast
1:55 AM 33.8 °F 25.3 °F 15.8 °F 48% 29.76 in 10.0 mi SSW 11.5 mph 19.6 mph N/A   Mostly Cloudy
2:15 AM 33.8 °F 24.8 °F 17.6 °F 52% 29.75 in 10.0 mi SSW 12.7 mph 21.9 mph N/A   Overcast
2:35 AM 33.8 °F 24.3 °F 17.6 °F 52% 29.75 in 10.0 mi SSW 13.8 mph 21.9 mph N/A   Overcast
2:55 AM 33.8 °F 23.2 °F 17.6 °F 52% 29.75 in 10.0 mi SSW 17.3 mph 25.3 mph N/A   Overcast
3:15 AM 33.8 °F 25.8 °F 17.6 °F 52% 29.75 in 10.0 mi SW 10.4 mph 17.3 mph N/A   Overcast
3:35 AM 33.8 °F 22.8 °F 19.4 °F 56% 29.74 in 10.0 mi SW 18.4 mph - N/A   Overcast
3:55 AM 33.8 °F 26.4 °F 19.4 °F 56% 29.76 in 10.0 mi WSW 9.2 mph 18.4 mph N/A   Overcast
4:15 AM 33.8 °F 25.8 °F 19.4 °F 56% 29.77 in 10.0 mi NW 10.4 mph - N/A   Overcast
4:35 AM 30.2 °F 19.8 °F 21.2 °F 69% 29.78 in 10.0 mi North 13.8 mph - N/A   Overcast
4:55 AM 28.4 °F 18.5 °F 23.0 °F 80% 29.78 in 10.0 mi North 11.5 mph - N/A   Overcast
5:15 AM 28.4 °F 18.0 °F 24.8 °F 86% 29.77 in 7.0 mi NNE 12.7 mph - N/A   Overcast
5:35 AM 28.4 °F 20.4 °F 24.8 °F 86% 29.78 in 7.0 mi North 8.1 mph - N/A   Overcast
5:55 AM 28.4 °F 23.3 °F 24.8 °F 86% 29.79 in 7.0 mi North 4.6 mph - N/A   Overcast
6:15 AM 26.6 °F 22.6 °F 26.6 °F 100% 29.80 in 5.0 mi North 3.5 mph - N/A   Overcast
6:35 AM 26.6 °F - 26.6 °F 100% 29.81 in 5.0 mi Calm Calm - N/A   Overcast
6:55 AM 26.6 °F - 24.8 °F 93% 29.82 in 10.0 mi Calm Calm - N/A   Overcast
7:15 AM 26.6 °F - 24.8 °F 93% 29.82 in 10.0 mi Calm Calm - N/A   Mostly Cloudy
7:35 AM 26.6 °F - 24.8 °F 93% 29.82 in 10.0 mi Calm Calm - N/A   Overcast
7:55 AM 26.6 °F - 24.8 °F 93% 29.82 in 10.0 mi Calm Calm - N/A   Overcast
8:15 AM 26.6 °F - 24.8 °F 93% 29.82 in 10.0 mi Calm Calm - N/A   Overcast
8:35 AM 26.6 °F - 24.8 °F 93% 29.84 in 10.0 mi Calm Calm - N/A   Overcast
8:55 AM 26.6 °F - 26.6 °F 100% 29.85 in 10.0 mi Calm Calm - N/A   Overcast
9:15 AM 28.4 °F - 26.6 °F 93% 29.85 in 9.0 mi Calm Calm - N/A   Overcast
9:35 AM 28.4 °F - 26.6 °F 93% 29.87 in 10.0 mi Calm Calm - N/A   Overcast
9:55 AM 28.4 °F - 26.6 °F 93% 29.88 in 10.0 mi Calm Calm - N/A   Overcast
10:15 AM 28.4 °F - 26.6 °F 93% 29.89 in 10.0 mi Calm Calm - N/A   Overcast
10:35 AM 28.4 °F - 26.6 °F 93% 29.90 in 9.0 mi Calm Calm - N/A   Overcast
10:55 AM 30.2 °F - 26.6 °F 86% 29.90 in 10.0 mi Calm Calm - N/A   Overcast
11:15 AM 30.2 °F - 26.6 °F 86% 29.91 in 10.0 mi Calm Calm - N/A   Overcast
11:35 AM 30.2 °F - 26.6 °F 86% 29.91 in 10.0 mi Calm Calm - N/A   Overcast
11:55 AM 30.2 °F - 26.6 °F 86% 29.91 in 10.0 mi Calm Calm - N/A   Overcast
12:15 PM 30.2 °F - 26.6 °F 86% 29.90 in 10.0 mi Calm Calm - N/A   Overcast
12:35 PM 30.2 °F - 26.6 °F 86% 29.90 in 10.0 mi Calm Calm - N/A   Overcast
12:55 PM 33.8 °F - 28.4 °F 81% 29.90 in 10.0 mi Calm Calm - N/A   Overcast
1:15 PM 33.8 °F - 26.6 °F 75% 29.89 in 10.0 mi Calm Calm - N/A   Overcast
1:35 PM 33.8 °F - 28.4 °F 81% 29.89 in 10.0 mi Calm Calm - N/A   Overcast
1:55 PM 33.8 °F - 26.6 °F 75% 29.88 in 10.0 mi Calm Calm - N/A   Overcast
2:15 PM 33.8 °F 30.8 °F 26.6 °F 75% 29.88 in 10.0 mi NW 3.5 mph - N/A   Overcast
2:35 PM 33.8 °F - 28.4 °F 81% 29.88 in 10.0 mi Calm Calm - N/A   Overcast
2:55 PM 35.6 °F 32.8 °F 28.4 °F 75% 29.89 in 10.0 mi NE 3.5 mph - N/A   Overcast
3:15 PM 35.6 °F - 28.4 °F 75% 29.89 in 10.0 mi Calm Calm - N/A   Overcast
3:35 PM 35.6 °F - 28.4 °F 75% 29.90 in 10.0 mi Calm Calm - N/A   Overcast
3:55 PM 35.6 °F - 28.4 °F 75% 29.91 in 10.0 mi Calm Calm - N/A   Overcast
4:15 PM 35.6 °F - 26.6 °F 70% 29.91 in 10.0 mi Calm Calm - N/A   Mostly Cloudy
4:35 PM 33.8 °F - 26.6 °F 75% 29.92 in 10.0 mi Calm Calm - N/A   Overcast
4:55 PM 33.8 °F - 28.4 °F 81% 29.93 in 10.0 mi Calm Calm - N/A   Overcast
5:15 PM 33.8 °F 30.8 °F 28.4 °F 81% 29.93 in 10.0 mi ESE 3.5 mph - N/A   Overcast
5:35 PM 32.0 °F 28.7 °F 26.6 °F 80% 29.94 in 10.0 mi West 3.5 mph - N/A   Overcast
5:55 PM 32.0 °F 28.7 °F 28.4 °F 87% 29.94 in 10.0 mi SE 3.5 mph - N/A   Overcast
6:15 PM 33.8 °F - 26.6 °F 75% 29.93 in 10.0 mi Calm Calm - N/A   Mostly Cloudy
6:35 PM 35.6 °F 30.7 °F 26.6 °F 70% 29.93 in 10.0 mi NW 5.8 mph - N/A   Partly Cloudy
6:55 PM 33.8 °F 29.6 °F 23.0 °F 65% 29.94 in 10.0 mi SSE 4.6 mph - N/A   Mostly Cloudy
7:15 PM 35.6 °F 31.7 °F 26.6 °F 70% 29.96 in 10.0 mi ENE 4.6 mph - N/A   Overcast
7:35 PM 35.6 °F 28.6 °F 24.8 °F 65% 29.95 in 10.0 mi North 9.2 mph - N/A   Overcast
7:55 PM 33.8 °F - 23.0 °F 65% 29.96 in 10.0 mi Calm Calm - N/A   Mostly Cloudy
8:15 PM 33.8 °F 30.8 °F 24.8 °F 70% 29.97 in 10.0 mi ENE 3.5 mph - N/A   Mostly Cloudy
8:35 PM 32.0 °F - 23.0 °F 69% 29.96 in 10.0 mi Calm Calm - N/A   Mostly Cloudy
8:55 PM 33.8 °F - 23.0 °F 65% 29.97 in 10.0 mi Calm Calm - N/A   Overcast
9:15 PM 33.8 °F - 24.8 °F 70% 29.97 in 10.0 mi Calm Calm - N/A   Overcast
9:35 PM 32.0 °F - 24.8 °F 75% 29.97 in 10.0 mi Calm Calm - N/A   Overcast
9:55 PM 30.2 °F - 26.6 °F 86% 29.97 in 10.0 mi Calm Calm - N/A   Overcast
10:15 PM 32.0 °F - 24.8 °F 75% 29.97 in 10.0 mi Calm Calm - N/A   Overcast
10:35 PM 32.0 °F - 24.8 °F 75% 29.97 in 10.0 mi Calm Calm - N/A   Overcast
10:55 PM 30.2 °F - 26.6 °F 86% 29.97 in 10.0 mi Calm Calm - N/A   Overcast
11:15 PM 30.2 °F - 26.6 °F 86% 29.98 in 10.0 mi Calm Calm - N/A   Overcast
11:35 PM 30.2 °F 26.7 °F 26.6 °F 86% 29.98 in 10.0 mi ESE 3.5 mph - N/A   Overcast
11:55 PM 30.2 °F - 26.6 °F 86% 29.97 in 10.0 mi Calm Calm - N/A   Overcast